Theta_e
316 321 323 323 317 315 319 325 325 331 330 332 331 330 329 329 329 328 333 336 336 332 335 336 336 335 336 334 334 329 321 317 317 317 317 317 317 317 317 317 316 316 316 316 316 316 316 317 317
317 321 322 321 317 322 325 321 329 328 332 333 331 331 330 332 330 332 330 336 334 333 335 336 336 336 336 335 334 331 323 318 317 317 317 317 317 316 316 316 316 316 316 316 316 316 316 317 317
318 320 321 313 314 322 326 325 328 331 334 333 332 334 336 340 334 334 333 339 334 334 335 335 336 336 335 335 334 332 325 320 318 317 317 317 317 317 317 316 316 317 317 317 317 317 317 317 317
319 321 317 316 321 320 323 325 328 331 335 333 333 332 337 339 341 336 336 340 336 334 334 335 336 336 335 334 334 333 327 322 320 318 317 317 317 317 317 317 317 317 317 317 317 317 317 317 317
322 321 315 317 318 318 319 323 327 330 333 334 332 337 342 343 341 340 333 341 340 336 335 335 335 335 335 334 334 333 328 323 322 320 318 318 318 318 318 317 317 317 317 317 317 316 316 316 316
322 318 317 320 321 320 321 326 328 330 332 332 334 337 342 343 343 340 338 342 343 341 337 335 335 335 335 334 333 333 329 324 324 322 320 319 318 318 318 318 318 318 317 318 317 317 317 316 316
320 317 321 321 322 320 322 326 329 330 331 331 335 340 340 341 343 340 341 343 342 340 339 336 335 335 335 334 333 332 329 325 325 324 322 321 320 319 319 319 319 319 319 320 320 320 319 319 318
324 317 322 320 321 322 321 326 329 330 330 332 334 339 334 335 341 339 340 342 342 342 340 336 335 334 334 334 333 332 330 326 326 326 325 323 322 322 321 321 320 321 321 321 321 321 321 322 322
323 317 319 321 322 321 323 321 324 331 331 333 334 337 337 332 335 338 340 340 334 338 339 336 333 333 333 333 332 331 329 327 327 327 327 326 325 324 323 323 322 322 323 323 322 322 322 323 323
319 316 319 319 320 321 321 319 322 327 330 334 335 338 337 336 329 333 334 330 328 328 333 333 331 330 331 331 331 330 329 328 328 328 328 328 327 326 326 325 325 325 325 325 323 322 322 323 324
317 318 318 321 322 321 320 321 322 321 330 332 333 337 337 338 331 331 330 327 322 325 329 328 329 329 330 330 330 330 330 329 329 329 329 329 329 329 328 327 327 327 327 327 325 323 323 324 326
321 320 321 322 324 322 321 322 322 322 326 330 332 335 337 337 331 328 327 325 324 324 323 324 326 328 330 329 328 328 329 330 330 329 330 330 330 330 330 329 328 328 328 329 327 324 323 326 328
320 321 323 323 323 324 324 322 321 323 325 325 325 329 335 337 332 329 329 327 325 325 324 324 325 326 327 328 328 328 328 329 330 331 330 330 331 331 331 331 330 329 330 329 326 324 325 328 328
321 321 322 323 323 323 323 323 323 326 326 324 324 326 330 334 335 331 330 328 326 325 326 325 326 326 325 325 325 326 328 329 330 331 331 331 331 332 332 332 332 331 331 330 329 329 329 329 328
322 321 319 320 322 322 322 322 320 327 324 323 325 326 328 332 336 332 331 328 327 326 326 327 327 328 327 327 327 327 328 329 330 330 331 332 332 332 332 332 333 332 331 332 331 331 331 331 330
322 320 321 319 322 323 323 324 323 327 325 326 322 327 328 327 334 334 333 333 331 328 327 328 329 329 329 330 330 328 327 328 329 330 331 332 333 333 333 333 333 333 333 333 332 332 332 332 331
320 323 323 322 322 322 323 323 322 327 325 324 322 323 329 326 332 335 335 335 335 334 330 330 330 332 332 333 333 330 329 328 328 329 330 331 332 333 333 333 334 334 334 333 334 333 333 333 332
325 325 324 323 322 321 322 320 320 325 323 323 323 321 324 326 326 326 329 333 336 337 337 332 333 334 335 336 336 334 331 331 330 329 329 330 332 333 334 335 335 335 335 334 334 334 333 333 332
324 324 324 322 321 322 322 321 321 322 321 322 325 321 322 322 325 324 324 325 328 333 338 337 334 335 336 338 338 338 336 335 334 331 329 330 331 334 335 336 336 335 335 335 335 335 335 334 333
322 323 322 322 322 322 321 322 321 318 320 323 323 325 325 324 326 327 327 326 325 325 327 335 335 336 336 338 339 340 339 337 337 336 333 331 331 333 335 337 337 336 337 337 336 336 336 334 334
321 322 323 323 322 321 320 321 322 321 321 323 324 324 325 325 326 326 326 325 325 325 326 326 327 332 336 337 339 341 341 339 339 338 337 336 333 333 334 336 338 337 337 337 336 337 337 336 334
320 319 321 321 324 325 321 324 320 320 319 320 322 323 324 325 323 323 324 326 325 326 326 325 326 329 334 337 339 340 340 340 339 339 339 338 337 335 335 334 334 334 334 334 335 335 335 335 334
321 320 321 323 323 321 321 321 319 319 322 321 320 324 325 325 325 323 323 323 324 325 325 325 325 327 329 334 337 339 341 341 341 340 340 340 339 338 337 334 333 333 335 334 334 335 334 334 335
321 323 320 318 319 324 321 320 321 321 323 321 321 324 326 326 326 326 326 325 324 324 324 325 326 327 329 332 335 336 338 341 341 341 341 341 340 340 339 337 335 334 335 336 336 334 334 334 334
320 321 324 322 323 326 320 320 321 320 320 320 321 324 326 326 326 327 328 329 329 328 326 325 326 327 329 331 333 335 337 340 341 341 340 341 341 340 341 340 340 337 338 337 337 336 335 335 334
318 319 324 327 323 323 321 324 323 319 321 323 323 324 325 327 327 327 327 327 327 327 327 328 329 330 331 333 335 338 339 339 340 340 341 340 338 337 340 341 341 337 337 338 337 336 336 334 329
319 320 320 321 321 322 321 320 320 319 318 321 322 324 325 325 325 325 326 327 327 327 327 327 326 326 326 327 328 329 329 330 326 329 329 328 329 331 336 338 339 334 334 335 336 335 334 333 327
318 319 323 321 326 327 323 322 323 322 321 320 319 320 322 325 321 321 323 324 324 326 327 328 327 327 327 327 326 325 323 323 323 323 324 325 325 325 326 330 334 335 335 332 334 332 333 329 325
320 320 321 321 320 323 323 323 319 321 320 321 319 321 322 319 318 319 320 320 319 320 322 322 327 328 328 327 324 322 323 322 322 323 324 325 325 324 324 325 329 333 336 334 336 330 331 326 322
319 318 320 321 321 319 319 320 317 318 319 319 320 319 318 317 319 321 323 323 324 324 321 322 322 324 328 328 327 323 323 323 322 323 324 325 325 325 324 325 329 332 333 332 334 331 328 326 319
Wind_Speed
3 6 7 2 4 5 2 4 2 4 3 5 11 6 5 2 4 4 4 25 29 33 32 30 27 24 21 18 15 13 12 12 13 14 13 13 12 11 10 9 8 8 7 7 7 7 7 7 6
3 5 5 3 5 4 5 4 6 7 2 11 11 2 0 4 6 6 7 30 28 31 31 29 27 24 22 19 17 14 13 12 12 12 12 12 11 10 9 8 8 8 8 7 6 6 5 5 5
3 5 4 4 3 3 3 4 7 6 6 5 6 5 4 3 4 3 14 26 29 31 31 29 27 25 22 20 17 15 13 13 12 12 12 11 11 9 9 8 8 7 7 7 7 6 4 4 3
3 3 5 4 1 4 4 5 5 3 5 6 5 2 2 4 2 9 18 21 29 31 29 28 27 24 23 20 18 17 14 13 11 11 11 10 9 9 9 8 8 7 7 7 6 5 4 3 2
2 3 4 3 4 5 5 9 10 4 4 2 2 1 2 4 3 6 17 23 28 29 27 27 26 24 23 22 20 17 15 13 12 11 10 10 9 9 8 7 7 6 6 5 4 4 4 4 3
3 2 4 1 4 5 7 9 6 8 9 5 2 1 2 5 4 12 18 19 22 22 26 26 25 25 23 22 20 18 16 14 12 11 11 10 9 9 8 7 6 5 4 4 4 4 4 4 5
4 3 3 3 3 6 3 5 5 8 9 8 2 2 4 6 10 13 16 19 21 24 24 26 27 26 23 21 20 19 17 15 14 12 12 11 10 10 9 7 6 5 5 5 4 5 6 6 5
2 4 1 2 2 5 5 2 6 15 11 5 11 4 5 11 13 14 16 17 20 23 25 26 26 25 24 23 22 21 19 17 16 15 14 12 12 11 9 9 8 7 7 6 6 7 8 7 6
2 4 1 3 2 7 16 5 4 6 7 13 8 12 6 10 17 20 21 20 19 23 25 25 26 26 26 25 24 23 21 20 19 18 16 16 15 12 11 10 9 9 8 8 9 10 8 8 7
4 3 6 5 3 5 14 6 4 4 9 10 16 23 17 14 22 24 23 21 22 25 26 28 27 27 26 26 27 25 25 24 22 21 20 19 17 15 13 13 12 11 11 10 11 12 10 9 8
4 5 4 5 7 5 7 12 6 3 3 14 24 26 22 18 26 25 24 21 19 22 26 26 27 26 27 29 28 28 28 27 25 24 23 21 19 18 17 16 15 14 13 13 14 13 12 10 9
1 9 8 6 8 10 4 7 5 9 13 11 17 22 27 21 30 29 27 24 24 24 24 25 26 27 28 28 29 29 29 29 29 27 26 24 23 21 20 18 17 17 17 17 16 15 14 12 10
4 4 4 13 22 17 16 12 7 12 11 11 13 18 25 28 31 30 29 27 27 27 27 27 27 27 28 30 29 29 31 31 30 29 28 28 26 25 22 21 20 19 19 17 16 15 15 13 13
3 9 16 17 19 13 6 9 0 19 15 11 12 15 18 25 33 34 32 31 31 30 31 29 30 29 28 27 29 31 32 32 31 31 31 30 28 27 26 24 24 23 21 19 17 16 15 14 15
6 7 6 8 4 5 5 5 6 16 10 11 17 20 22 27 36 37 32 34 32 33 32 33 32 31 31 31 30 31 33 32 32 33 32 32 31 30 29 28 27 26 24 23 21 19 19 20 19
5 3 5 5 5 1 4 7 7 13 10 22 20 28 28 25 35 38 37 37 38 36 35 34 35 34 34 35 35 32 32 32 33 34 34 34 34 33 32 32 31 28 27 27 26 23 23 24 23
4 2 3 10 6 3 1 8 11 22 22 21 17 25 32 27 35 41 42 44 43 41 38 37 37 37 37 37 34 33 32 33 34 35 35 35 36 35 35 35 33 30 30 30 29 28 27 27 27
2 2 3 5 6 6 12 13 14 28 18 22 17 15 26 30 31 31 37 42 46 47 43 41 40 40 39 39 36 36 36 34 35 36 36 34 35 35 35 36 35 32 32 32 32 32 31 31 31
3 3 5 5 11 4 7 9 14 24 16 20 17 12 16 20 20 26 29 31 41 45 49 49 45 44 44 43 42 41 40 38 36 36 36 35 34 35 35 36 35 35 34 34 33 33 33 33 33
6 5 7 7 5 5 10 14 13 8 10 10 13 18 17 16 22 26 28 27 29 31 39 51 50 46 46 45 46 45 43 42 39 36 36 35 35 36 36 37 37 36 35 35 36 35 35 36 36
5 5 4 7 3 3 7 9 6 5 7 11 9 11 15 19 25 30 34 31 29 31 31 38 40 46 49 49 49 48 48 46 44 41 37 35 35 36 37 38 39 39 37 37 38 39 40 39 38
10 8 12 8 2 3 3 5 6 4 8 4 13 12 16 18 19 20 26 25 28 29 28 31 36 40 47 51 51 52 52 52 48 45 40 37 34 34 36 37 37 39 38 37 39 40 41 41 43
7 5 7 4 3 2 3 1 7 4 6 7 11 21 18 18 20 18 11 13 16 25 28 31 35 38 41 47 50 50 52 53 51 47 43 39 34 32 35 36 37 37 39 37 35 39 41 43 48
0 1 5 4 2 2 7 6 5 4 4 6 8 18 15 19 21 20 18 12 10 15 20 25 31 36 39 41 43 44 46 50 51 48 44 40 37 35 35 35 35 37 40 39 39 37 36 40 43
4 5 3 2 1 6 3 4 8 6 6 5 6 12 12 14 16 19 20 18 15 11 10 15 20 24 27 31 34 36 38 42 43 43 42 40 39 40 40 36 33 33 34 38 42 40 41 45 44
8 10 5 7 4 4 4 6 6 7 8 8 5 8 10 8 10 12 12 12 13 12 11 8 10 14 17 21 26 27 28 30 32 34 33 33 35 38 38 37 32 33 32 32 36 42 44 38 39
6 6 10 5 2 2 4 6 9 5 6 8 7 12 15 15 16 17 14 13 13 13 15 16 17 17 20 23 22 23 24 26 28 25 26 28 29 34 34 32 31 31 30 31 32 34 34 35 33
10 6 4 1 6 6 5 5 6 4 6 5 4 7 15 12 22 22 22 22 21 22 23 24 25 25 25 23 24 24 25 25 26 25 24 24 22 23 24 25 25 27 28 27 31 26 29 30 27
5 5 3 5 5 6 3 6 8 13 9 6 5 8 10 17 23 24 24 24 28 27 25 28 34 33 32 29 28 27 28 28 27 29 27 24 20 19 20 25 27 27 28 30 26 24 24 33 28
5 9 10 5 7 3 3 6 3 7 4 4 7 10 19 21 22 25 27 27 28 30 35 31 31 35 40 37 35 33 34 33 34 34 31 26 24 22 20 23 27 28 28 29 27 25 25 33 30
Wind_Direction
66 39 9 60 63 64 303 272 289 208 220 201 144 144 191 197 185 210 233 177 171 173 173 171 174 177 175 174 168 163 161 158 154 152 152 150 149 152 149 144 140 129 120 112 111 113 116 108 103
61 12 14 59 80 60 289 259 245 244 240 156 169 155 199 276 227 281 190 173 173 176 175 177 177 181 181 181 176 171 167 163 162 159 157 155 159 162 156 153 145 142 133 129 130 128 123 114 111
56 10 26 81 99 158 209 225 259 316 114 92 158 208 185 246 236 220 166 167 177 180 180 182 182 186 184 186 183 179 176 169 169 167 164 165 169 166 162 158 151 148 142 143 144 144 141 142 135
67 40 57 73 293 264 213 263 220 322 241 219 212 128 183 222 281 169 177 181 175 180 183 185 187 188 189 191 191 189 185 176 173 173 173 176 175 174 171 164 159 158 155 153 153 153 164 169 185
51 61 52 49 282 271 251 260 238 213 272 223 173 51 203 187 172 174 168 171 177 182 186 186 190 193 194 196 195 195 194 185 180 182 184 185 185 185 183 172 169 171 169 157 157 169 189 196 212
48 59 62 346 274 271 287 286 218 225 248 304 242 314 236 198 151 160 162 167 177 184 187 189 194 198 199 201 201 202 201 195 191 193 195 196 199 200 197 189 185 186 180 167 178 189 214 219 214
105 80 194 193 266 300 231 337 252 207 225 235 239 158 276 185 157 164 167 169 175 188 191 192 198 199 201 204 207 209 209 205 202 204 206 207 212 213 211 207 205 203 195 202 204 209 215 222 221
75 97 43 291 303 284 280 257 279 221 240 205 219 225 266 200 170 170 171 176 184 191 195 197 199 202 203 205 209 213 213 212 211 213 216 217 222 222 221 220 220 217 218 227 230 229 224 223 226
168 62 222 235 254 282 323 356 301 205 254 208 215 240 277 211 184 181 181 183 189 195 199 202 203 206 208 209 212 215 216 218 217 218 221 224 228 230 230 229 229 229 233 241 242 238 234 230 230
112 121 224 208 239 273 306 299 341 173 217 228 230 240 252 222 198 192 195 195 195 195 196 201 205 209 211 214 217 220 221 222 221 223 227 230 233 235 235 237 237 238 243 247 245 243 237 235 233
154 195 221 256 289 306 292 322 338 186 232 228 223 227 237 219 206 203 205 210 210 200 201 203 208 212 215 218 221 223 225 226 226 228 230 232 236 237 239 241 245 247 251 249 248 246 240 232 228
230 246 253 276 307 310 252 292 292 218 262 273 246 240 230 225 214 212 210 212 213 213 210 213 213 213 217 221 226 229 230 230 230 232 232 234 237 240 243 246 247 251 252 250 250 247 240 233 230
205 260 250 285 296 287 287 260 241 246 265 270 266 245 239 235 224 221 221 218 218 221 218 215 215 215 219 223 227 231 233 233 234 235 236 237 240 242 245 248 248 249 248 250 248 243 238 238 244
248 269 283 293 274 259 233 276 203 280 288 233 241 248 241 236 232 225 225 225 226 227 226 221 220 218 221 227 230 234 235 235 236 237 239 241 243 246 247 248 248 248 247 247 245 241 239 242 246
287 312 317 255 270 250 191 319 230 274 287 281 255 230 236 240 228 231 238 232 229 229 231 228 225 223 225 227 231 234 237 238 239 240 242 243 244 245 247 250 250 250 248 247 244 240 239 241 249
358 34 352 299 314 348 160 263 269 298 299 301 279 233 226 231 235 236 239 243 239 233 231 232 230 227 227 230 232 233 240 243 244 244 244 244 245 246 247 249 250 251 248 246 244 244 245 248 251
15 261 309 322 334 288 101 278 270 298 306 292 291 236 225 231 235 238 242 242 244 242 236 234 233 230 232 234 237 240 242 245 247 247 246 246 246 247 247 249 251 250 247 245 245 247 250 253 253
229 320 269 265 286 343 304 264 273 292 289 283 294 247 230 236 242 246 250 252 251 249 244 239 239 238 237 240 239 241 243 244 245 246 246 246 246 246 246 248 249 247 246 246 245 248 250 255 256
277 207 256 255 273 288 258 276 277 284 287 284 286 250 234 241 262 261 253 253 253 251 251 245 239 241 240 240 240 239 240 242 243 245 244 244 243 244 245 247 248 248 247 249 251 252 254 254 255
253 281 273 283 262 177 302 288 273 284 270 275 296 302 294 274 268 268 269 258 248 247 246 249 245 241 245 244 245 243 244 244 246 249 250 248 244 244 246 248 251 251 252 254 254 254 255 258 256
234 215 234 237 337 269 301 303 325 314 304 322 328 299 293 286 280 273 268 263 258 240 242 250 253 245 243 246 244 243 245 246 247 248 251 253 250 248 250 251 252 255 254 255 258 259 257 258 258
262 211 238 261 62 202 38 285 311 337 316 288 316 325 327 325 319 289 268 256 241 235 244 246 248 250 246 246 246 245 246 246 250 251 254 256 257 258 257 257 258 261 264 260 261 263 263 261 258
231 214 214 221 204 125 184 71 268 322 324 332 321 345 346 348 352 349 328 275 231 239 240 240 242 246 247 246 247 248 247 249 251 253 257 260 263 265 265 265 262 262 260 262 264 267 267 266 258
57 96 45 46 79 300 217 154 277 222 228 298 312 354 356 359 11 17 19 5 299 266 252 245 243 244 246 248 250 253 253 251 251 253 257 263 270 270 268 265 265 266 264 263 264 268 268 268 263
139 68 315 342 325 224 180 137 245 238 250 233 284 344 356 358 12 19 19 24 18 357 303 274 264 259 260 260 259 259 258 255 257 260 263 265 268 269 272 271 270 269 271 266 261 265 268 271 261
188 159 174 210 198 237 120 227 249 206 218 277 313 359 4 351 356 0 3 0 355 350 342 315 285 269 261 259 258 258 258 259 260 260 261 262 266 270 273 275 273 272 272 272 269 263 268 270 247
185 179 198 108 16 33 221 279 301 214 248 257 343 2 359 10 5 350 332 320 317 312 306 298 290 282 282 272 262 254 251 250 254 256 254 257 266 271 273 271 265 265 274 275 276 268 265 275 233
183 163 90 339 186 223 259 256 216 245 204 215 284 349 4 2 358 357 348 340 328 308 293 278 269 264 269 270 265 256 248 251 253 247 247 257 271 278 279 272 263 267 271 267 271 277 276 249 220
151 214 191 141 151 178 221 253 215 223 238 253 289 340 14 352 338 339 335 321 309 305 299 301 273 262 261 263 261 251 251 250 248 242 251 257 265 275 281 282 278 272 271 266 264 273 257 223 220
166 195 176 153 226 218 183 255 255 226 248 219 295 338 344 344 340 336 332 326 317 309 297 298 291 275 261 257 257 255 254 252 249 246 252 255 261 265 271 272 270 271 263 266 264 266 252 225 216